Header for Extended Forecast Station List Page

Search by: ID | Name | Date | Parm | Value | Avg | % Avg
Sort by: ID | Name | Date | Parm | Value | Avg | % Avg

Enter search or view all records.

Click on id for station plot
#IDNameDateParmValueAvg% Avg
0ABOM8CLARK FORK-ABOVE MISSOULA10-12-2021DISCHARGE (KAF)28334981
1AFRI1SNAKE-AMERICAN FALLS RESERVOIR10-12-2021INFLOW (KAF)1103146975
2ALFW1PEND OREILLE-ALBENI FALLS DAM10-12-2021INFLOW (KAF)2311422755
3ALPW4SNAKE-NEAR ALPINE10-12-2021DISCHARGE (KAF)32140180
4ANAW1SNAKE-NEAR ANATONE10-12-2021DISCHARGE (KAF)3261559458
5ANTI1HENRYS FORK-AT ST. ANTHONY10-12-2021DISCHARGE (KAF)31334192
6ARAI1SF BOISE-ANDERSON RANCH DAM10-12-2021INFLOW (KAF)627483
7ARDW1ENTIAT-NEAR ARDENVOIR10-12-2021DISCHARGE (KAF)2622118
8BELM8CLARK FORK-BELOW MISSOULA10-12-2021DISCHARGE (KAF)40258469
9BERO3MALHEUR-AGENCY VALLEY DAM10-12-2021INFLOW (KAF)91562
10BFEI1KOOTENAI-AT BONNERS FERRY10-12-2021STAGE (FT)MMM
11BFTI1SNAKE-NEAR BLACKFOOT10-12-2021DISCHARGE (KAF)45078058
12BIGI1BOISE-AT GLENWOOD BRIDGE10-12-2021DISCHARGE (KAF)4537123
13BITM8BITTERROOT-NEAR MISSOULA10-12-2021DISCHARGE (KAF)11923152
14BONM8BLACKFOOT-NEAR BONNER10-12-2021DISCHARGE (KAF)10813779
15BONO3COLUMBIA-BONNEVILLE DAM10-12-2021INFLOW (KAF)281043548179
16BRNI1SNAKE-BROWNLEE DAM10-12-2021INFLOW (KAF)2659369972
17BUDW1BUMPING-BUMPING LAKE DAM10-12-2021INFLOW (KAF)323591
18BULO3BULLY CREEK-BULLY CREEK DAM10-12-2021INFLOW (KAF)32134
19CABI1CLARK FORK-CABINET GORGE DAM10-12-2021INFLOW (KAF)2063363357
20CFMM8FLATHEAD-AT COLUMBIA FALLS10-12-2021DISCHARGE (KAF)864119672
21CHDW1CHELAN-LAKE CHELAN DAM10-12-2021INFLOW (KAF)270158171
22CHEI1FALL RIVER-NEAR CHESTER10-12-2021DISCHARGE (KAF)10711295
23CHJW1COLUMBIA-CHIEF JOSEPH DAM10-12-2021INFLOW (KAF)201052112995
24CIBW1COLUMBIA-AT INTL BOUNDARY10-12-2021DISCHARGE (KAF)17039MM
25CLFW1NACHES-NEAR CLIFFDEL10-12-2021DISCHARGE (KAF)8510085
26CLUW1CLE ELUM-CLE ELUM LAKE10-12-2021INFLOW (KAF)121101119
27COEI1COEUR D ALENE-COEUR D ALENE LAKE10-12-2021INFLOW (KAF)23761738
28CSDI1NF PAYETTE-CASCADE DAM10-12-2021INFLOW (KAF)679372
29DEDI1DEADWOOD-NEAR LOWMAN10-12-2021INFLOW (KAF)131967
30DLGM8CLARK FORK-AT DEER LODGE10-12-2021DISCHARGE (KAF)476375
31DRMM8CLARK FORK-NR DRUMMOND10-12-2021DISCHARGE (KAF)117MM
32DWRI1NF CLEARWATER-DWORSHAK DAM10-12-2021INFLOW (KAF)21348644
33EASW1YAKIMA-AT EASTON10-12-2021DISCHARGE (KAF)556584
34EMMI1PAYETTE-NEAR EMMETT10-12-2021DISCHARGE (KAF)22334764
35FCFM8NF FLATHEAD-NEAR COLUMBIA FALLS10-12-2021DISCHARGE (KAF)12719764
36GCDW1COLUMBIA-GRAND COULEE DAM10-12-2021INFLOW (KAF)1767517380102
37GIBO3UMATILLA-NEAR GIBBON10-12-2021DISCHARGE (KAF)253181
38HALI1BIG WOOD-AT HAILEY10-12-2021DISCHARGE (KAF)224155
39HEII1SNAKE-NEAR HEISE10-12-2021DISCHARGE (KAF)31361851
40HHWM8SF FLATHEAD-HUNGRY HORSE DAM10-12-2021INFLOW (KAF)14224658
41HODO3HOOD-NEAR TUCKER BRIDGE10-12-2021DISCHARGE (KAF)20621496
42HOPI1PEND OREILLE-PEND OREILLE LAKE NR HOPE10-12-2021LAKE ELEVATION (FT)MMM
43HOTI1BRUNEAU-NEAR HOT SPRINGS10-12-2021DISCHARGE (KAF)212778
44HWRI1BIG LOST-AT HOWELL RANCH NEAR CHILLY10-12-2021DISCHARGE (KAF)142262
45IHDW1SNAKE-ICE HARBOR DAM10-12-2021INFLOW (KAF)4028737555
46IPDI1HENRYS FORK-ISLAND PARK DAM10-12-2021INFLOW (KAF)8111868
47JDAO3COLUMBIA-JOHN DAY DAM10-12-2021INFLOW (KAF)267943010889
48JKSW4SNAKE-NEAR JACKSON10-12-2021DISCHARGE (KAF)26231683
49JLKW4SNAKE-JACKSON LAKE AT DAM10-12-2021INFLOW (KAF)8311274
50KADW1KACHESS-KACHESS DAM10-12-2021INFLOW (KAF)4744107
51KEDW1YAKIMA-KEECHELUS LAKE10-12-2021INFLOW (KAF)5050100
52KERM8FLATHEAD-SELI’Š KSANKA QLISPE’ DAM10-12-2021INFLOW (KAF)931150462
53KIOW1YAKIMA-AT KIONA10-12-2021DISCHARGE (KAF)49167473
54LAUW1KETTLE-AT LAURIER10-12-2021DISCHARGE (KAF)8212864
55LEOI1KOOTENAI-AT LEONIA10-12-2021DISCHARGE (KAF)25351616157
56LGDW1SNAKE-LOWER GRANITE DAM10-12-2021INFLOW (KAF)4002733855
57LGSW1SNAKE-LITTLE GOOSE DAM10-12-2021INFLOW (KAF)4001739154
58LLKW1SPOKANE-AT LONGLAKE10-12-2021INFLOW (KAF)524107549
59LMNW1SNAKE-LOWER MONUMENTAL DAM10-12-2021INFLOW (KAF)4028745154
60LUCI1BOISE-LUCKY PEAK DAM10-12-2021INFLOW (KAF)31MM
61LWRI1LITTLE WOOD-LITTLE WOOD DAM10-12-2021INFLOW (KAF)101565
62LYDM8KOOTENAI-LIBBY DAM10-12-2021INFLOW (KAF)76293582
63MACI1BIG LOST-MACKAY RESERVOIR NEAR MACKAY10-12-2021INFLOW (KAF)246386
64MAGI1BIG WOOD-MAGIC DAM10-12-2021INFLOW (KAF)82731
65MCDW1COLUMBIA-MCNARY DAM10-12-2021INFLOW (KAF)257202924688
66MILI1SNAKE-AT MILNER10-12-2021DISCHARGE (KAF)M533M
67MODO3DESCHUTES-AT MOODY NR BIGGS10-12-2021DISCHARGE (KAF)1319136597
68MONO3NF JOHN DAY-AT MONUMENT10-12-2021DISCHARGE (KAF)539257
69MYKO3MCKAY CREEK-NEAR PILOT ROCK10-12-2021DISCHARGE (KAF)1714117
70NACW1NACHES-NEAR NACHES10-12-2021DISCHARGE (KAF)717398
71NOXM8CLARK FORK-NOXON RAPIDS DAM10-12-2021INFLOW (KAF)1882348254
72ORFI1CLEARWATER-AT OROFINO10-12-2021DISCHARGE (KAF)31164248
73OWYO3OWYHEE-OWYHEE DAM10-12-2021INFLOW (KAF)497665
74PARI1BOISE-NEAR PARMA10-12-2021DISCHARGE (KAF)17521083
75PARW1YAKIMA-NEAR PARKER10-12-2021DISCHARGE (KAF)33143876
76PATW1METHOW-NEAR PATEROS10-12-2021DISCHARGE (KAF)8410084
77PDTO3UMATILLA-AT PENDLETON10-12-2021DISCHARGE (KAF)656995
78PESW1WENATCHEE-AT PESHASTIN10-12-2021DISCHARGE (KAF)299294102
79PIHI1PORTNEUF-AT POCATELLO10-12-2021DISCHARGE (KAF)376061
80PITW1KLICKITAT-NEAR PITT10-12-2021DISCHARGE (KAF)23026487
81PLDI1SF SNAKE-PALISADES DAM10-12-2021INFLOW (KAF)52264781
82PRTI1PRIEST-NEAR PRIEST RIVER10-12-2021DISCHARGE (KAF)16223769
83PRWW1COLUMBIA-PRIEST RAPIDS DAM10-12-2021INFLOW (KAF)2118019935106
84RCCM8ROCK CREEK-NEAR CLINTON10-12-2021DISCHARGE (KAF)475093
85REXI1HENRYS FORK-AT REXBURG10-12-2021DISCHARGE (KAF)40043393
86RIDI1WILLOW CREEK-RIRIE DAM10-12-2021INFLOW (KAF)8895
87RILW1TIETON-RIMROCK LAKE NEAR RIMROCK10-12-2021INFLOW (KAF)416562
88RRHW1COLUMBIA-ROCKY REACH DAM10-12-2021INFLOW (KAF)208222199495
89SATI1ST MARIES-NEAR SANTA10-12-2021DISCHARGE (KAF)123042
90SERO3JOHN DAY-AT SERVICE CK10-12-2021DISCHARGE (KAF)11117564
91SHYI1SNAKE-NEAR SHELLEY10-12-2021DISCHARGE (KAF)51680464
92SIFI1SNAKE-AB EAGLE ROCK NR IDAHO FALLS10-12-2021DISCHARGE (KAF)52482264
93SJMI1ST JOE-AT ST MARIES10-12-2021STAGE (FT)MMM
94SNAI1SNAKE-AT BLACKFOOT10-12-2021DISCHARGE (KAF)42972359
95SPDI1CLEARWATER-AT SPALDING10-12-2021DISCHARGE (KAF)739153348
96SPOW1SPOKANE-AT SPOKANE10-12-2021DISCHARGE (KAF)350MM
97SRGM8CLARK FORK-AT ST REGIS10-12-2021DISCHARGE (KAF)51176167
98STRM8ST. REGIS-NEAR ST. REGIS10-12-2021DISCHARGE (KAF)173747
99SWAI1SNAKE-BELOW SWAN FALLS10-12-2021DISCHARGE (KAF)1776254870
100TCHW1WALLA WALLA-NEAR TOUCHET10-12-2021DISCHARGE (KAF)6510264
101TDAO3COLUMBIA-THE DALLES DAM10-12-2021INFLOW (KAF)274913346782
102TEAI1TETON-NEAR ST. ANTHONY10-12-2021DISCHARGE (KAF)9110785
103TNAW1TEANAWAY-BELOW FORKS10-12-2021DISCHARGE (KAF)193651
104TONW1OKANOGAN-NEAR TONASKET10-12-2021DISCHARGE (KAF)22328279
105TRYO3GRANDE RONDE-TROY10-12-2021DISCHARGE (KAF)15927957
106UMAO3UMATILLA-NEAR UMATILLA10-12-2021DISCHARGE (KAF)10372142
107UMTW1YAKIMA-AT UMTANUM10-12-2021DISCHARGE (KAF)20024382
108UNDW1WHITE SALMON-NEAR UNDERWOOD10-12-2021DISCHARGE (KAF)18522682
109WANW1COLUMBIA-WANAPUM DAM10-12-2021INFLOW (KAF)2118219612108
110WEII1SNAKE-AT WEISER10-12-2021DISCHARGE (KAF)2501360069
111WELW1COLUMBIA-WELLS DAM10-12-2021INFLOW (KAF)204102148095
112WGCM8MF FLATHEAD-NEAR WEST GLACIER10-12-2021DISCHARGE (KAF)5917334
113WHBI1SALMON-AT WHITEBIRD10-12-2021DISCHARGE (KAF)705109065
114WRMO3MALHEUR-WARM SPRINGS DAM10-12-2021INFLOW (KAF)161982
115WSRI1WEISER-NEAR WEISER10-12-2021DISCHARGE (KAF)306943